Check out our new BloomSky Weather System.

Active alerts


No alerts


Thunder radar  blitzortung!


Rain radar more information rain snow radar


Visit our other weather sites:

Template documentation
and downloads

And another site



Weather Underground History page Text

Daily Summary for September 7, 2017 Units:  English    Metric   Both
« Previous Day
Next Day »
Daily Weekly Monthly Yearly Custom
  High: Low: Average:
Temperature: 82.8 °F 60.8 °F 71.6 °F
Dew Point: 62.1 °F 55.4 °F 59.5 °F
Humidity: 92 % 41 % 69 %
Wind Speed: 8.0 mph 0.0 mph 1 mph
Wind Gust: 12.0 mph - -
Wind:- - South
Pressure: 30.14 in 30.04 in -
Precipitation: 0.00 in    
Historical Graphs
 
 
Tabular Data for September 7, 2017
Time Temperature Dew Point Pressure Wind Wind Speed Wind Gust Humidity Rainfall Rate (Hourly)
00:00 65.5 °F 61.5 °F 30.06 in Calm   1.0 mph 87 % 0.00 in
00:05 65.3 °F 61.7 °F 30.07 in Calm   1.0 mph 88 % 0.00 in
00:11 65.3 °F 61.7 °F 30.07 in Calm   1.0 mph 88 % 0.00 in
00:16 65.1 °F 61.5 °F 30.07 in Calm   1.0 mph 88 % 0.00 in
00:21 64.9 °F 61.3 °F 30.07 in Calm     88 % 0.00 in
00:26 64.6 °F 61.0 °F 30.07 in Calm     88 % 0.00 in
00:31 64.2 °F 61.0 °F 30.07 in Calm     89 % 0.00 in
00:36 64.2 °F 61.0 °F 30.06 in Calm     89 % 0.00 in
00:41 64.2 °F 61.2 °F 30.07 in Calm     90 % 0.00 in
00:46 64.2 °F 61.0 °F 30.06 in Calm     89 % 0.00 in
00:51 64.0 °F 60.8 °F 30.06 in Calm     89 % 0.00 in
00:52 64.0 °F 60.8 °F 30.06 in Calm     89 % 0.00 in
00:57 64.0 °F 61.0 °F 30.06 in Calm     90 % 0.00 in
01:02 63.9 °F 60.8 °F 30.06 in Calm     90 % 0.00 in
01:07 64.0 °F 61.0 °F 30.06 in Calm     90 % 0.00 in
01:12 64.2 °F 61.2 °F 30.06 in Calm   1.0 mph 90 % 0.00 in
01:17 64.2 °F 61.2 °F 30.06 in Calm   1.0 mph 90 % 0.00 in
01:22 64.0 °F 61.0 °F 30.06 in Calm   1.0 mph 90 % 0.00 in
01:27 64.0 °F 61.0 °F 30.06 in Calm   1.0 mph 90 % 0.00 in
01:32 63.7 °F 60.6 °F 30.06 in Calm   1.0 mph 90 % 0.00 in
01:37 63.3 °F 60.6 °F 30.06 in Calm   1.0 mph 91 % 0.00 in
01:42 63.3 °F 61.0 °F 30.06 in Calm     92 % 0.00 in
01:48 63.5 °F 61.2 °F 30.06 in Calm     92 % 0.00 in
01:53 63.7 °F 61.3 °F 30.06 in Calm     92 % 0.00 in
01:58 63.7 °F 61.3 °F 30.06 in Calm     92 % 0.00 in
02:03 63.3 °F 61.0 °F 30.06 in Calm     92 % 0.00 in
02:08 63.3 °F 61.0 °F 30.06 in Calm   1.0 mph 92 % 0.00 in
02:13 63.1 °F 60.8 °F 30.06 in Calm   1.0 mph 92 % 0.00 in
02:18 63.0 °F 60.6 °F 30.06 in Calm   1.0 mph 92 % 0.00 in
02:23 63.0 °F 60.6 °F 30.06 in Calm   1.0 mph 92 % 0.00 in
02:28 63.1 °F 60.4 °F 30.06 in Calm   1.0 mph 91 % 0.00 in
02:33 63.3 °F 60.6 °F 30.07 in Calm   1.0 mph 91 % 0.00 in
02:38 63.3 °F 60.6 °F 30.07 in Calm   1.0 mph 91 % 0.00 in
02:43 63.1 °F 60.1 °F 30.07 in Calm   1.0 mph 90 % 0.00 in
02:48 63.0 °F 59.9 °F 30.07 in Calm     90 % 0.00 in
02:53 63.0 °F 60.3 °F 30.07 in Calm   1.0 mph 91 % 0.00 in
02:58 62.8 °F 59.7 °F 30.06 in Calm   1.0 mph 90 % 0.00 in
03:03 62.8 °F 60.1 °F 30.07 in ESE 1.0 mph 1.0 mph 91 % 0.00 in
03:08 63.0 °F 60.3 °F 30.07 in Calm   1.0 mph 91 % 0.00 in
03:13 63.0 °F 59.9 °F 30.06 in Calm   1.0 mph 90 % 0.00 in
03:18 63.0 °F 59.9 °F 30.07 in Calm   1.0 mph 90 % 0.00 in
03:23 62.8 °F 59.7 °F 30.07 in Calm   1.0 mph 90 % 0.00 in
03:28 62.8 °F 60.1 °F 30.07 in ESE 1.0 mph   91 % 0.00 in
03:33 62.8 °F 59.7 °F 30.07 in Calm   2.0 mph 90 % 0.00 in
03:38 62.8 °F 59.7 °F 30.07 in Calm   2.0 mph 90 % 0.00 in
03:43 62.8 °F 59.7 °F 30.07 in Calm   2.0 mph 90 % 0.00 in
03:48 62.4 °F 59.4 °F 30.07 in Calm   1.0 mph 90 % 0.00 in
03:53 62.2 °F 59.2 °F 30.07 in Calm     90 % 0.00 in
03:58 62.2 °F 59.2 °F 30.07 in Calm     90 % 0.00 in
04:03 62.1 °F 59.2 °F 30.07 in Calm   1.0 mph 90 % 0.00 in
04:08 62.1 °F 59.2 °F 30.07 in Calm   1.0 mph 90 % 0.00 in
04:13 62.1 °F 59.2 °F 30.07 in Calm   1.0 mph 90 % 0.00 in
04:18 62.2 °F 59.2 °F 30.07 in Calm   1.0 mph 90 % 0.00 in
04:23 62.1 °F 59.2 °F 30.07 in Calm   1.0 mph 90 % 0.00 in
04:28 62.1 °F 59.2 °F 30.07 in Calm   1.0 mph 90 % 0.00 in
04:33 62.1 °F 59.2 °F 30.07 in Calm   1.0 mph 90 % 0.00 in
04:34 62.1 °F 59.2 °F 30.07 in Calm   1.0 mph 90 % 0.00 in
04:39 62.1 °F 58.8 °F 30.07 in Calm   1.0 mph 89 % 0.00 in
04:44 61.7 °F 58.8 °F 30.07 in Calm   1.0 mph 90 % 0.00 in
04:49 61.3 °F 58.6 °F 30.07 in Calm     91 % 0.00 in
04:54 61.3 °F 58.6 °F 30.07 in Calm     91 % 0.00 in
04:57 61.3 °F 58.6 °F 30.07 in Calm     91 % 0.00 in
05:02 61.3 °F 58.6 °F 30.08 in Calm   1.0 mph 91 % 0.00 in
05:07 61.3 °F 58.6 °F 30.08 in Calm   1.0 mph 91 % 0.00 in
05:12 61.2 °F 58.5 °F 30.08 in Calm   1.0 mph 91 % 0.00 in
05:17 61.0 °F 58.3 °F 30.08 in Calm   1.0 mph 91 % 0.00 in
05:22 60.8 °F 58.5 °F 30.08 in Calm     92 % 0.00 in
05:27 61.0 °F 58.6 °F 30.08 in Calm   1.0 mph 92 % 0.00 in
05:32 61.2 °F 58.8 °F 30.08 in Calm   1.0 mph 92 % 0.00 in
05:37 61.2 °F 58.5 °F 30.08 in Calm   1.0 mph 91 % 0.00 in
05:42 61.2 °F 58.8 °F 30.08 in Calm   1.0 mph 92 % 0.00 in
05:47 61.3 °F 58.6 °F 30.08 in Calm   1.0 mph 91 % 0.00 in
05:52 61.5 °F 58.8 °F 30.08 in Calm   1.0 mph 91 % 0.00 in
05:57 61.5 °F 58.6 °F 30.08 in Calm   1.0 mph 90 % 0.00 in
06:02 61.5 °F 58.6 °F 30.08 in Calm   1.0 mph 90 % 0.00 in
06:07 61.5 °F 58.6 °F 30.09 in Calm   1.0 mph 90 % 0.00 in
06:12 61.5 °F 58.6 °F 30.09 in Calm   1.0 mph 90 % 0.00 in
06:17 61.3 °F 58.6 °F 30.09 in Calm   1.0 mph 91 % 0.00 in
06:22 61.5 °F 58.8 °F 30.09 in Calm   1.0 mph 91 % 0.00 in
06:27 61.5 °F 58.8 °F 30.09 in Calm   1.0 mph 91 % 0.00 in
06:32 61.7 °F 58.8 °F 30.09 in Calm   1.0 mph 90 % 0.00 in
06:37 61.9 °F 59.0 °F 30.09 in Calm   2.0 mph 90 % 0.00 in
06:42 62.1 °F 58.8 °F 30.09 in ENE 1.0 mph 3.0 mph 89 % 0.00 in
06:47 62.2 °F 59.0 °F 30.09 in North 2.0 mph 3.0 mph 89 % 0.00 in
06:52 62.2 °F 59.0 °F 30.09 in Calm   3.0 mph 89 % 0.00 in
06:57 62.2 °F 59.0 °F 30.09 in Calm   2.0 mph 89 % 0.00 in
07:02 62.2 °F 59.0 °F 30.09 in Calm   2.0 mph 89 % 0.00 in
07:07 62.1 °F 58.8 °F 30.09 in East 1.0 mph 2.0 mph 89 % 0.00 in
07:12 62.1 °F 58.5 °F 30.09 in Calm   3.0 mph 88 % 0.00 in
07:18 62.2 °F 58.6 °F 30.10 in Calm   3.0 mph 88 % 0.00 in
07:23 62.2 °F 58.6 °F 30.10 in Calm   3.0 mph 88 % 0.00 in
07:28 62.2 °F 58.6 °F 30.10 in Calm   2.0 mph 88 % 0.00 in
07:33 62.4 °F 58.8 °F 30.10 in Calm   2.0 mph 88 % 0.00 in
07:38 62.4 °F 58.8 °F 30.10 in WNW 1.0 mph 2.0 mph 88 % 0.00 in
07:43 62.8 °F 58.8 °F 30.10 in Calm   3.0 mph 87 % 0.00 in
07:48 63.0 °F 59.0 °F 30.10 in Calm   3.0 mph 87 % 0.00 in
07:53 63.5 °F 59.2 °F 30.10 in NNE 1.0 mph 4.0 mph 86 % 0.00 in
07:58 64.0 °F 59.4 °F 30.10 in ENE 2.0 mph 4.0 mph 85 % 0.00 in
08:03 64.8 °F 59.5 °F 30.10 in Calm   4.0 mph 83 % 0.00 in
08:08 65.7 °F 60.1 °F 30.10 in NNW 3.0 mph 3.0 mph 82 % 0.00 in
08:13 66.0 °F 59.7 °F 30.10 in Calm   3.0 mph 80 % 0.00 in
08:18 66.4 °F 60.1 °F 30.10 in NNW 1.0 mph 6.0 mph 80 % 0.00 in
08:23 66.7 °F 59.7 °F 30.10 in ESE 1.0 mph 6.0 mph 78 % 0.00 in
08:28 67.3 °F 59.9 °F 30.10 in NNE 4.0 mph 6.0 mph 77 % 0.00 in
08:33 67.6 °F 59.7 °F 30.11 in ENE 2.0 mph 5.0 mph 76 % 0.00 in
08:38 68.2 °F 60.3 °F 30.11 in North 1.0 mph 6.0 mph 76 % 0.00 in
08:43 69.1 °F 60.4 °F 30.11 in ENE 1.0 mph 6.0 mph 74 % 0.00 in
08:48 69.3 °F 60.3 °F 30.11 in Calm   6.0 mph 73 % 0.00 in
08:54 69.3 °F 59.9 °F 30.11 in Calm   6.0 mph 72 % 0.00 in
08:59 69.6 °F 60.3 °F 30.11 in North 3.0 mph 7.0 mph 72 % 0.00 in
09:04 70.0 °F 60.6 °F 30.12 in NNW 1.0 mph 7.0 mph 72 % 0.00 in
09:09 70.3 °F 60.1 °F 30.12 in Calm   7.0 mph 70 % 0.00 in
09:14 70.9 °F 61.0 °F 30.12 in Calm   6.0 mph 71 % 0.00 in
09:19 71.2 °F 60.6 °F 30.12 in NNW 1.0 mph 6.0 mph 69 % 0.00 in
09:24 71.4 °F 60.3 °F 30.12 in Calm   5.0 mph 68 % 0.00 in
09:29 72.0 °F 61.2 °F 30.12 in ENE 1.0 mph 5.0 mph 69 % 0.00 in
09:34 72.9 °F 61.3 °F 30.12 in Calm   5.0 mph 67 % 0.00 in
09:39 73.0 °F 61.0 °F 30.12 in NE 1.0 mph 4.0 mph 66 % 0.00 in
09:44 73.4 °F 61.7 °F 30.12 in NNW 1.0 mph 6.0 mph 67 % 0.00 in
09:49 73.6 °F 60.3 °F 30.12 in NE 1.0 mph 6.0 mph 63 % 0.00 in
09:54 73.6 °F 60.3 °F 30.12 in NNE 1.0 mph 6.0 mph 63 % 0.00 in
09:59 73.8 °F 60.4 °F 30.12 in Calm   6.0 mph 63 % 0.00 in
10:04 74.1 °F 60.3 °F 30.13 in WSW 1.0 mph 6.0 mph 62 % 0.00 in
10:09 74.8 °F 60.4 °F 30.13 in North 2.0 mph 5.0 mph 61 % 0.00 in
10:14 75.6 °F 62.1 °F 30.13 in ENE 4.0 mph 5.0 mph 63 % 0.00 in
10:19 75.7 °F 61.3 °F 30.13 in NNE 3.0 mph 5.0 mph 61 % 0.00 in
10:24 75.9 °F 61.0 °F 30.13 in ENE 5.0 mph 5.0 mph 60 % 0.00 in
10:29 75.9 °F 60.6 °F 30.13 in NNW 2.0 mph 6.0 mph 59 % 0.00 in
10:32 75.9 °F 60.1 °F 30.13 in ESE 5.0 mph 6.0 mph 58 % 0.00 in
10:37 76.5 °F 60.6 °F 30.14 in WNW 4.0 mph 7.0 mph 58 % 0.00 in
10:42 76.8 °F 60.4 °F 30.13 in NNW 1.0 mph 7.0 mph 57 % 0.00 in
10:47 77.2 °F 59.2 °F 30.14 in Calm   7.0 mph 54 % 0.00 in
10:52 77.4 °F 58.8 °F 30.14 in NNW 3.0 mph 7.0 mph 53 % 0.00 in
10:57 76.8 °F 59.0 °F 30.14 in NE 2.0 mph 7.0 mph 54 % 0.00 in
11:02 76.8 °F 58.5 °F 30.14 in WNW 2.0 mph 9.0 mph 53 % 0.00 in
11:07 77.2 °F 58.3 °F 30.14 in NNE 2.0 mph 9.0 mph 52 % 0.00 in
11:12 77.2 °F 58.3 °F 30.14 in East 1.0 mph 9.0 mph 52 % 0.00 in
11:17 77.2 °F 57.7 °F 30.14 in NNE 3.0 mph 8.0 mph 51 % 0.00 in
11:22 77.4 °F 58.3 °F 30.14 in East 3.0 mph 8.0 mph 52 % 0.00 in
11:27 77.5 °F 57.9 °F 30.14 in North 1.0 mph 8.0 mph 51 % 0.00 in
11:32 77.4 °F 58.3 °F 30.13 in ESE 2.0 mph 8.0 mph 52 % 0.00 in
11:37 77.5 °F 58.5 °F 30.14 in North 3.0 mph 8.0 mph 52 % 0.00 in
11:42 77.4 °F 57.2 °F 30.14 in North 5.0 mph 12.0 mph 50 % 0.00 in
11:47 77.7 °F 58.1 °F 30.14 in WNW 1.0 mph 12.0 mph 51 % 0.00 in
11:52 78.1 °F 57.9 °F 30.14 in NNW 2.0 mph 12.0 mph 50 % 0.00 in
11:57 78.1 °F 57.9 °F 30.14 in South 3.0 mph 12.0 mph 50 % 0.00 in
12:02 79.0 °F 60.4 °F 30.14 in NE 3.0 mph 12.0 mph 53 % 0.00 in
12:07 78.8 °F 59.2 °F 30.14 in SSE 1.0 mph 12.0 mph 51 % 0.00 in
12:12 79.0 °F 59.4 °F 30.13 in ESE 6.0 mph 8.0 mph 51 % 0.00 in
12:15 79.2 °F 57.7 °F 30.14 in North 4.0 mph 9.0 mph 48 % 0.00 in
12:20 79.2 °F 58.3 °F 30.13 in North 1.0 mph 9.0 mph 49 % 0.00 in
12:25 79.0 °F 58.8 °F 30.13 in NNE 2.0 mph 9.0 mph 50 % 0.00 in
12:30 79.0 °F 57.0 °F 30.13 in East 5.0 mph 9.0 mph 47 % 0.00 in
12:35 78.8 °F 58.6 °F 30.13 in NNW 2.0 mph 9.0 mph 50 % 0.00 in
12:37 79.0 °F 58.1 °F 30.13 in NW 3.0 mph 9.0 mph 49 % 0.00 in
12:42 79.2 °F 58.3 °F 30.12 in NE 3.0 mph 8.0 mph 49 % 0.00 in
12:47 79.2 °F 57.7 °F 30.12 in NE 5.0 mph 10.0 mph 48 % 0.00 in
12:52 79.3 °F 56.8 °F 30.12 in SE 1.0 mph 10.0 mph 46 % 0.00 in
12:57 79.3 °F 57.9 °F 30.12 in North 3.0 mph 10.0 mph 48 % 0.00 in
13:02 79.7 °F 59.4 °F 30.12 in ENE 2.0 mph 7.0 mph 50 % 0.00 in
13:07 80.1 °F 58.1 °F 30.12 in NW 2.0 mph 7.0 mph 47 % 0.00 in
13:12 80.1 °F 59.2 °F 30.12 in North 4.0 mph 8.0 mph 49 % 0.00 in
13:17 80.1 °F 57.4 °F 30.12 in NW 3.0 mph 8.0 mph 46 % 0.00 in
13:22 80.2 °F 57.6 °F 30.11 in SE 3.0 mph 8.0 mph 46 % 0.00 in
13:27 80.2 °F 59.9 °F 30.11 in NNW 4.0 mph 8.0 mph 50 % 0.00 in
13:32 80.8 °F 57.4 °F 30.11 in NW 2.0 mph 8.0 mph 45 % 0.00 in
13:37 80.6 °F 59.7 °F 30.11 in Calm   7.0 mph 49 % 0.00 in
13:42 81.1 °F 58.5 °F 30.11 in WNW 3.0 mph 7.0 mph 46 % 0.00 in
13:47 81.0 °F 58.3 °F 30.10 in NW 1.0 mph 9.0 mph 46 % 0.00 in
13:52 81.1 °F 60.1 °F 30.10 in South 1.0 mph 9.0 mph 49 % 0.00 in
13:57 81.1 °F 56.5 °F 30.10 in NNE 3.0 mph 9.0 mph 43 % 0.00 in
14:02 81.0 °F 55.8 °F 30.10 in ENE 8.0 mph 10.0 mph 42 % 0.00 in
14:07 81.0 °F 57.0 °F 30.10 in NE 1.0 mph 10.0 mph 44 % 0.00 in
14:12 81.0 °F 56.3 °F 30.10 in East 6.0 mph 10.0 mph 43 % 0.00 in
14:17 81.3 °F 55.4 °F 30.10 in Calm   9.0 mph 41 % 0.00 in
14:22 81.7 °F 59.5 °F 30.09 in NNW 1.0 mph 8.0 mph 47 % 0.00 in
14:27 82.0 °F 58.6 °F 30.09 in WNW 2.0 mph 7.0 mph 45 % 0.00 in
14:33 82.0 °F 59.2 °F 30.09 in NNW 3.0 mph 7.0 mph 46 % 0.00 in
14:38 82.2 °F 58.8 °F 30.09 in NW 5.0 mph 7.0 mph 45 % 0.00 in
14:43 81.9 °F 57.2 °F 30.09 in Calm   8.0 mph 43 % 0.00 in
14:48 82.4 °F 58.3 °F 30.09 in ENE 3.0 mph 9.0 mph 44 % 0.00 in
14:53 82.2 °F 58.8 °F 30.09 in ENE 1.0 mph 9.0 mph 45 % 0.00 in
14:58 82.2 °F 58.1 °F 30.09 in NE 4.0 mph 9.0 mph 44 % 0.00 in
15:02 81.7 °F 57.6 °F 30.09 in NW 4.0 mph 9.0 mph 44 % 0.00 in
15:07 81.7 °F 58.3 °F 30.08 in ENE 3.0 mph 8.0 mph 45 % 0.00 in
15:12 81.9 °F 58.5 °F 30.08 in WNW 1.0 mph 8.0 mph 45 % 0.00 in
15:17 82.2 °F 58.8 °F 30.08 in North 1.0 mph 7.0 mph 45 % 0.00 in
15:22 82.2 °F 58.1 °F 30.07 in NW 2.0 mph 8.0 mph 44 % 0.00 in
15:27 82.2 °F 58.8 °F 30.08 in NNW 4.0 mph 8.0 mph 45 % 0.00 in
15:32 82.2 °F 58.8 °F 30.08 in NW 3.0 mph 8.0 mph 45 % 0.00 in
15:37 81.9 °F 57.7 °F 30.08 in NNE 2.0 mph 9.0 mph 44 % 0.00 in
15:42 81.9 °F 57.7 °F 30.07 in Calm   9.0 mph 44 % 0.00 in
15:47 81.9 °F 57.7 °F 30.07 in ESE 4.0 mph 9.0 mph 44 % 0.00 in
15:49 81.9 °F 57.7 °F 30.07 in East 2.0 mph 9.0 mph 44 % 0.00 in
15:54 82.0 °F 57.9 °F 30.06 in Calm   10.0 mph 44 % 0.00 in
15:59 82.0 °F 56.7 °F 30.06 in ENE 4.0 mph 10.0 mph 42 % 0.00 in
16:04 81.9 °F 57.2 °F 30.06 in ESE 3.0 mph 10.0 mph 43 % 0.00 in
16:09 81.9 °F 57.2 °F 30.06 in North 1.0 mph 9.0 mph 43 % 0.00 in
16:14 82.0 °F 57.4 °F 30.06 in ENE 2.0 mph 9.0 mph 43 % 0.00 in
16:19 82.2 °F 57.6 °F 30.06 in NE 5.0 mph 7.0 mph 43 % 0.00 in
16:24 82.0 °F 57.4 °F 30.06 in ENE 2.0 mph 5.0 mph 43 % 0.00 in
16:29 82.0 °F 58.6 °F 30.06 in NW 2.0 mph 5.0 mph 45 % 0.00 in
16:34 81.9 °F 57.7 °F 30.05 in Calm   6.0 mph 44 % 0.00 in
16:39 82.0 °F 58.6 °F 30.05 in SE 2.0 mph 6.0 mph 45 % 0.00 in
16:44 82.6 °F 59.0 °F 30.05 in SSE 2.0 mph 6.0 mph 45 % 0.00 in
16:49 82.8 °F 59.2 °F 30.05 in East 3.0 mph 6.0 mph 45 % 0.00 in
16:54 82.2 °F 58.1 °F 30.05 in NW 1.0 mph 6.0 mph 44 % 0.00 in
16:59 82.6 °F 57.7 °F 30.05 in NNW 4.0 mph 7.0 mph 43 % 0.00 in
17:04 82.2 °F 58.1 °F 30.05 in NNE 1.0 mph 7.0 mph 44 % 0.00 in
17:09 81.9 °F 57.7 °F 30.05 in NW 1.0 mph 7.0 mph 44 % 0.00 in
17:14 82.0 °F 58.6 °F 30.05 in ENE 3.0 mph 8.0 mph 45 % 0.00 in
17:19 81.9 °F 58.5 °F 30.04 in North 4.0 mph 8.0 mph 45 % 0.00 in
17:24 81.9 °F 58.5 °F 30.04 in WNW 1.0 mph 8.0 mph 45 % 0.00 in
17:29 81.9 °F 59.0 °F 30.04 in SE 1.0 mph 5.0 mph 46 % 0.00 in
17:34 81.9 °F 58.5 °F 30.04 in Calm   6.0 mph 45 % 0.00 in
17:39 81.7 °F 58.8 °F 30.04 in NNW 1.0 mph 8.0 mph 46 % 0.00 in
17:44 81.3 °F 57.4 °F 30.04 in ESE 1.0 mph 8.0 mph 44 % 0.00 in
17:49 81.0 °F 58.8 °F 30.04 in East 1.0 mph 9.0 mph 47 % 0.00 in
17:54 81.1 °F 58.5 °F 30.04 in ESE 1.0 mph 9.0 mph 46 % 0.00 in
17:59 81.0 °F 58.3 °F 30.04 in East 3.0 mph 9.0 mph 46 % 0.00 in
18:04 80.8 °F 58.6 °F 30.04 in NE 1.0 mph 8.0 mph 47 % 0.00 in
18:09 80.8 °F 59.2 °F 30.04 in NW 2.0 mph 8.0 mph 48 % 0.00 in
18:14 80.8 °F 58.6 °F 30.04 in NNE 3.0 mph 7.0 mph 47 % 0.00 in
18:19 80.8 °F 58.6 °F 30.05 in East 1.0 mph 7.0 mph 47 % 0.00 in
18:24 80.8 °F 58.6 °F 30.05 in NNE 2.0 mph 5.0 mph 47 % 0.00 in
18:30 80.8 °F 58.1 °F 30.05 in Calm   5.0 mph 46 % 0.00 in
18:35 80.8 °F 59.2 °F 30.05 in NNW 2.0 mph 5.0 mph 48 % 0.00 in
18:40 80.4 °F 59.0 °F 30.05 in Calm   6.0 mph 48 % 0.00 in
18:45 80.2 °F 58.8 °F 30.05 in ENE 1.0 mph 6.0 mph 48 % 0.00 in
18:50 80.2 °F 58.8 °F 30.05 in Calm   5.0 mph 48 % 0.00 in
18:55 80.1 °F 59.2 °F 30.05 in Calm   4.0 mph 49 % 0.00 in
19:00 80.1 °F 59.2 °F 30.05 in Calm   3.0 mph 49 % 0.00 in
19:05 79.9 °F 59.0 °F 30.05 in Calm   6.0 mph 49 % 0.00 in
19:10 79.5 °F 58.6 °F 30.05 in North 3.0 mph 6.0 mph 49 % 0.00 in
19:15 79.3 °F 59.0 °F 30.05 in Calm   6.0 mph 50 % 0.00 in
19:20 79.0 °F 58.8 °F 30.05 in North 1.0 mph 5.0 mph 50 % 0.00 in
19:25 78.4 °F 58.8 °F 30.05 in Calm   3.0 mph 51 % 0.00 in
19:30 77.7 °F 58.6 °F 30.05 in Calm   3.0 mph 52 % 0.00 in
19:35 77.2 °F 58.6 °F 30.05 in Calm   2.0 mph 53 % 0.00 in
19:40 76.6 °F 58.8 °F 30.05 in Calm   2.0 mph 54 % 0.00 in
19:45 76.3 °F 59.0 °F 30.05 in Calm   1.0 mph 55 % 0.00 in
19:50 75.9 °F 59.2 °F 30.05 in NNE 1.0 mph 1.0 mph 56 % 0.00 in
19:55 75.6 °F 59.2 °F 30.05 in Calm   1.0 mph 57 % 0.00 in
20:00 75.0 °F 58.8 °F 30.05 in Calm   1.0 mph 57 % 0.00 in
20:05 74.7 °F 58.8 °F 30.05 in Calm   1.0 mph 58 % 0.00 in
20:10 74.5 °F 59.2 °F 30.05 in Calm   1.0 mph 59 % 0.00 in
20:15 74.1 °F 59.7 °F 30.06 in Calm   1.0 mph 61 % 0.00 in
20:20 73.9 °F 60.1 °F 30.06 in Calm   1.0 mph 62 % 0.00 in
20:25 73.6 °F 59.7 °F 30.06 in Calm   1.0 mph 62 % 0.00 in
20:30 73.2 °F 60.3 °F 30.06 in Calm   1.0 mph 64 % 0.00 in
20:35 72.9 °F 60.4 °F 30.06 in Calm   1.0 mph 65 % 0.00 in
20:40 72.7 °F 60.6 °F 30.06 in Calm   1.0 mph 66 % 0.00 in
20:45 72.3 °F 60.3 °F 30.06 in Calm     66 % 0.00 in
20:50 72.0 °F 60.4 °F 30.06 in Calm   1.0 mph 67 % 0.00 in
20:55 72.0 °F 60.8 °F 30.06 in Calm   1.0 mph 68 % 0.00 in
21:00 71.8 °F 60.6 °F 30.06 in Calm   1.0 mph 68 % 0.00 in
21:05 71.6 °F 60.8 °F 30.07 in Calm   1.0 mph 69 % 0.00 in
21:10 71.4 °F 60.8 °F 30.07 in Calm   1.0 mph 69 % 0.00 in
21:15 71.2 °F 61.0 °F 30.07 in Calm   1.0 mph 70 % 0.00 in
21:20 71.1 °F 60.8 °F 30.07 in Calm   1.0 mph 70 % 0.00 in
21:26 70.9 °F 61.0 °F 30.07 in Calm   1.0 mph 71 % 0.00 in
21:36 70.2 °F 61.2 °F 30.07 in Calm   1.0 mph 73 % 0.00 in
21:41 69.6 °F 61.0 °F 30.07 in Calm     74 % 0.00 in
21:46 69.4 °F 61.5 °F 30.06 in Calm     76 % 0.00 in
21:51 69.4 °F 61.5 °F 30.07 in Calm   1.0 mph 76 % 0.00 in
21:56 69.3 °F 61.3 °F 30.06 in Calm   1.0 mph 76 % 0.00 in
22:01 69.1 °F 61.5 °F 30.06 in Calm   1.0 mph 77 % 0.00 in
22:06 68.7 °F 61.2 °F 30.06 in Calm     77 % 0.00 in
22:11 68.7 °F 61.5 °F 30.06 in Calm     78 % 0.00 in
22:16 68.5 °F 61.3 °F 30.06 in Calm     78 % 0.00 in
22:19 68.4 °F 61.5 °F 30.06 in Calm     79 % 0.00 in
22:21 68.4 °F 61.5 °F 30.06 in Calm     79 % 0.00 in
22:24 68.4 °F 61.5 °F 30.07 in Calm     79 % 0.00 in
22:25 68.2 °F 61.3 °F 30.07 in Calm     79 % 0.00 in
22:27 68.2 °F 61.3 °F 30.06 in Calm     79 % 0.00 in
22:32 68.0 °F 61.5 °F 30.06 in Calm     80 % 0.00 in
22:33 68.0 °F 61.5 °F 30.06 in Calm     80 % 0.00 in
22:38 67.8 °F 61.7 °F 30.06 in Calm     81 % 0.00 in
22:43 67.6 °F 61.5 °F 30.06 in Calm     81 % 0.00 in
22:48 67.5 °F 61.3 °F 30.06 in Calm     81 % 0.00 in
22:53 67.3 °F 61.2 °F 30.06 in Calm     81 % 0.00 in
22:58 67.3 °F 61.5 °F 30.06 in Calm     82 % 0.00 in
23:03 67.3 °F 61.5 °F 30.06 in Calm     82 % 0.00 in
23:08 67.3 °F 61.5 °F 30.06 in Calm   1.0 mph 82 % 0.00 in
23:13 67.1 °F 61.7 °F 30.06 in Calm   1.0 mph 83 % 0.00 in
23:18 67.1 °F 61.3 °F 30.07 in Calm   1.0 mph 82 % 0.00 in
23:23 67.3 °F 61.5 °F 30.06 in Calm   1.0 mph 82 % 0.00 in
23:28 67.3 °F 61.5 °F 30.06 in Calm   1.0 mph 82 % 0.00 in
23:33 67.3 °F 61.5 °F 30.06 in Calm   1.0 mph 82 % 0.00 in
23:38 67.3 °F 61.5 °F 30.06 in Calm   1.0 mph 82 % 0.00 in
23:43 67.3 °F 61.5 °F 30.06 in Calm   1.0 mph 82 % 0.00 in
23:44 67.3 °F 61.5 °F 30.07 in Calm   1.0 mph 82 % 0.00 in
23:49 67.3 °F 61.5 °F 30.06 in WNW 1.0 mph 1.0 mph 82 % 0.00 in
23:54 67.5 °F 61.3 °F 30.06 in WNW 1.0 mph 2.0 mph 81 % 0.00 in
23:59 67.5 °F 61.2 °F 30.06 in NE 1.0 mph 2.0 mph 80 % 0.00 in
Spring, Texas: Villages of Bridgestone
Compliments of Weather Underground - 2.75 mb

Script developed by  Jim McMurry - jmcmurry@mwt.net Adapted for the template by  Wim van der Kuil - Leuven-Template.eu

You find our weather info also at:

UK Metoffice

WeatherCloud

Weather Underground

Mid-South Weather Network

AWEKAS

Citizen Weather Observer Program (CWOP)

HAMweather, WeatherForYou, PWS Weather

Equipment we use:

Weather-station
Davis Vantage Vue

Weather-program
Meteohub

Weather-server
Debian 7.9 x86 (Guest)

Provider
DreamHost

Davis Vantage Vue

Meteohub

Debian 7.9 x86 (Guest)

DreamHost